Location: Newark
(50.4348°N, 30.5552°E)
Time: 02:27:50
(UTC+00:00)

Envisat - Pass Details

Date: 16 December 2019
Orbit: 764 x 766 km, 98.1° (Epoch: 23 January)

Event Time Altitude Azimuth Distance (km) Brightness Sun altitude
Rises 04:14:44 0° 19° (NNE) 3,246 6.3 -14.5°
Reaches altitude 10° 04:17:12 10° 27° (NNE) 2,315 5.6 -14.1°
Maximum altitude 04:21:59 39° 97° (E) 1,137 4.5 -13.4°
Drops below altitude 10° 04:26:43 10° 166° (SSE) 2,297 6.0 -12.7°
Sets 04:29:09 0° 174° (S) 3,218 6.6 -12.3°
